{"data":{"norad_id":65225,"epoch":"2026-09-20T21:23:42.628704Z","epoch_age_seconds":83704,"freshness":"FRESH","line1":"1 65225U 25176AD  26263.89146561  .00009661  00000+0  29666-3 0  9993","line2":"2 65225  53.1607 321.9991 0000892  71.5877 288.5223 15.34401766 63008","mean_motion":15.34401766,"eccentricity":8.92e-5,"inclination_deg":53.1607,"raan_deg":321.9991,"arg_perigee_deg":71.5877,"mean_anomaly_deg":288.5223,"bstar":0.00029666,"rev_number":6300,"period_min":93.847650068463,"perigee_km":462.08778880675,"apogee_km":463.30819376919,"semimajor_km":6840.834991288,"source":"CELESTRAK","updated_at":"2026-09-21T09:00:35.539195Z"}}